User: anonymous   Login
Location: Hepcat Sky Observatory
(29.9800°N, 95.6500°W)
Time: 15:41:27
(UTC-05:00)
Language:

SL-16 Debris - Orbit

View from above orbital plane
View from above orbital plane
View from above satellite
View from above satellite

Ground track
Ground track

The orbit data is extracted from the following two-line orbital elements,

1 26076U 99040E   17074.46332275  .00001517  00000-0  19240-3 0  9997
2 26076  28.4404 131.4014 4523444 168.3218 207.3582  6.44511073299833
Epoch (UTC): 15 March 2017 11:07:11
Eccentricity: 0.4523444
inclination: 28.4404°
perigee height: 301 km
apogee height: 11336 km
right ascension of ascending node: 131.4014°
argument of perigee: 168.3218°
revolutions per day: 6.44511073
mean anomaly at epoch: 207.3582°
orbit number at epoch: 29983

The dashed part of the orbit path shows where the satellite is in the earth's shadow,  

DLR